Regional Weather Roundup
Issued by NWS Sterling, VA

Home | Current Version | Previous Version | Graphics & Text | Print | Product List | Glossary On
Versions: 1 2 3 4 5 6 7 8 9 10 11 12 13 14 15 16 17 18 19 20 21 22 23 24 25 26 27 28 29 30 31 32 33 34 35 36 37 38 39 40 41 42 43 44 45 46 47 48 49 50
000
ASUS41 KLWX 260011
RWRLWX

REGIONAL WEATHER ROUNDUP
NATIONAL WEATHER SERVICE BALTIMORE MD/WASHINGTON DC
800 PM EDT TUE APR 25 2017

Note: "FAIR" indicates few or no clouds below 12,000 feet
with no significant weather and/or obstructions to visibility.
 TC=TEMPERATURE CELSIUS

 * =Non NWS site. Station does not report precipitation (e.g. rain,
    snow, etc.), thunder, or fog.

DCZ001-MDZ009-015-VAZ040>042-051-053>054-260100-
WASHINGTON METRO

CITY           SKY/WX    TMP DP  RH WIND       PRES   REMARKS
WASHINGTON NAT CLOUDY    59  58  96 N13       29.73S
DULLES         CLOUDY    59  56  89 NE6       29.74S
ANDREWS AFB    CLOUDY    58  56  96 NE10      29.71F
FT BELVOIR     CLOUDY    59  56  89 NE3       29.72S
QUANTICO       CLOUDY    61  59  93 NE9       29.73S
COLLEGE PARK*  CLOUDY    57  55  93 N7        29.73F
LEESBURG*      CLOUDY    59  59 100 N6        29.77R FOG
MANASSAS*        N/A     59  57  93 NE9       29.74S

$$

MDZ006>007-011-014-260100-
BALTIMORE METRO

CITY           SKY/WX    TMP DP  RH WIND       PRES   REMARKS
BWI AIRPORT    LGT RAIN  57  57 100 NE10      29.73F FOG
MD SCIENCE CTR   N/A     59  55  87 MISG      29.73F
MARTIN STATE   CLOUDY    57  57 100 NE5       29.76F
ANNAPOLIS      CLOUDY    59  58  96 N8        29.72S
FORT MEADE*    CLOUDY    55  54  94 NE6       29.76F

$$

MDZ012-015-019>023-260100-
MARYLAND EASTERN SHORE

CITY           SKY/WX    TMP DP  RH WIND       PRES   REMARKS
OCEAN CITY     CLOUDY    60  59  96 E16       29.64S
SALISBURY      CLOUDY    61  61 100 N8        29.65F
BAY BRIDGE AP* CLOUDY    57  57 100 NE7       29.72R FOG
CAMBRIDGE*     CLOUDY    61  59  94 N10       29.68S
EASTON*        LGT RAIN  61  59  94 NE13G20   29.73F VSB 1

$$

MDZ017>025-260100-
SOUTHERN MARYLAND

CITY           SKY/WX    TMP DP  RH WIND       PRES   REMARKS
PATUXENT RIVER LGT RAIN  60  60 100 N9        29.67F FOG
ST INIGOES     LGT RAIN  61  60  97 N6        29.66S
LEONARDTOWN*   CLOUDY    59  57  94 CALM      29.70S

$$

MDZ003>005-260100-
NORTH CENTRAL MARYLAND

CITY           SKY/WX    TMP DP  RH WIND       PRES   REMARKS
FREDERICK*     CLOUDY   N/A N/A N/A N6        29.79R FOG
HAGERSTOWN APT CLOUDY    57  55  93 N7        29.78S FOG
WESTMINSTER*   CLOUDY   N/A N/A N/A NE10      29.76F FOG

$$

MDZ501>502-260100-
WESTERN MARYLAND

CITY           SKY/WX    TMP DP  RH WIND       PRES   REMARKS
OAKLAND*       CLOUDY    48  48 100 E7        29.82S FOG
CUMBERLAND*    CLOUDY    55  55 100 NW3       29.85S

$$

VAZ025>031-260100-
SHENANDOAH VALLEY

CITY           SKY/WX    TMP DP  RH WIND       PRES   REMARKS
WINCHESTER*    DRIZZLE   54  54 100 NW5       29.78R
FRONT ROYAL*   CLOUDY    54  54 100 N5        29.77S
LURAY*         CLOUDY    55  55 100 CALM      29.78R
NEW MARKET*    CLOUDY    55  53  91 N5        29.78S
STAUNTON*      CLOUDY    54  52  94 N8        29.79S
WAYNESBORO*    CLOUDY    53  53 100 N8        29.78R

$$

WVZ021-048>050-054>055-260100-
EASTERN WEST VIRGINIA PANHANDLE

CITY           SKY/WX    TMP DP  RH WIND       PRES   REMARKS
MARTINSBURG    CLOUDY    56  54  93 N9        29.77S
PETERSBURG*    CLOUDY    56  55  94 CALM      29.81F

$$

VAZ036>039-050-260100-
CENTRAL FOOTHILLS

CITY           SKY/WX    TMP DP  RH WIND       PRES   REMARKS
CHARLOTTESVILL CLOUDY    60  56  86 N3        29.74R
CULPEPER*      RAIN      59  59  99 N8        29.75R
ORANGE*        DRIZZLE   55  55 100 CALM      29.74R
GORDONSVILLE*  CLOUDY    58  57  99 N3        29.72S
WARRENTON*     CLOUDY    59  56  89 N8        29.74R FOG

$$

VAZ055>057-260100-
NORTH AND CENTRAL PIEDMONT

CITY           SKY/WX    TMP DP  RH WIND       PRES   REMARKS
FREDERICKSBRG* CLOUDY    60  60 100 N9G21     29.70S
STAFFORD*      CLOUDY    58  58 100 N8        29.76S

$$

NCZ024-NYZ072-PAZ021-071-VAZ022-071-260100-
OTHER REGIONAL OBSERVATIONS

CITY           SKY/WX    TMP DP  RH WIND       PRES   REMARKS
NEW YORK CITY  LGT RAIN  52  51  97 E12G31    29.92F FOG
PHILADELPHIA   RAIN      56  54  93 NE16G24   29.80F FOG
PITTSBURGH     CLOUDY    59  57  93 E7        29.80F
ROANOKE        CLOUDY    60  54  80 NE8       29.77R
RICHMOND       CLOUDY    63  61  93 N12       29.67R
RALEIGH        MOCLDY    64  59  83 VRB5      29.69R

$$

ANZ530>537-260100-
MARINE OBSERVATIONS

STATION/POSITION TIME  TEMP    WIND        PRES
                       AIR SEA DIR/SP/G
                 (UTC) (F)     (DEG/KT/KT) (MB)
THOMAS PT LIGHT  0000   57 57   10/ 15/ 16   N/A
BALT KEY BRIDGE  2348   57      40/  7/ 11 1007.0R
COVE POINT       2348   59      20/  9/ 12 1005.7F
LEWISETTA        2348   61 60  360/  6/  9 1004.1F
SOLOMONS ISLAND  2348   60 60  340/  6/  8   N/A
PINEY POINT      2348           20/  9/ 12   N/A

$$




USA.gov is the U.S. government's official web portal to all federal, state and local government web resources and services.